Cosmos 1328 Rocket - Orbit

View from above orbital plane
View from above orbital plane
View from above satellite
View from above satellite

Ground track
Ground track

The orbit data is extracted from the following two-line orbital elements,

1 12988U 81117B   13145.20760351  .00000361  00000-0  40584-4 0  7425
2 12988 082.5255 024.4647 0019721 070.5022 076.5738 14.83695973699689
Epoch (UTC): 25 May 2013 04:58:56
Eccentricity: 0.0019721
inclination: 82.5255°
perigee height: 604 km
apogee height: 631 km
right ascension of ascending node: 24.4647°
argument of perigee: 70.5022°
revolutions per day: 14.83695973
mean anomaly at epoch: 76.5738°
orbit number at epoch: 69968

The dashed part of the orbit path shows where the satellite is in the earth's shadow,  

Developed and maintained by Chris Peat, Heavens-Above GmbH. Please read the updated FAQ before sending e-mail. Imprint. DLR